Location: La Chapelle
(48.3135°N, 1.3085°W)
Time: 08:23:28
(UTC+00:00)

ERS-2 - Pass Details

Date: 03 March 2021
Orbit: 492 x 496 km, 98.6° (Epoch: 11 April)

Event Time Altitude Azimuth Distance (km) Brightness Sun altitude
Rises 18:22:42 0° 24° (NNE) 2,594 5.5 -5.8°
Reaches altitude 10° 18:24:59 10° 35° (NE) 1,706 4.5 -6.2°
Maximum altitude 18:28:13 29° 98° (E) 935 3.0 -6.7°
Drops below altitude 10° 18:31:26 10° 160° (SSE) 1,694 4.6 -7.3°
Sets 18:33:41 0° 171° (S) 2,571 5.7 -7.6°
